This is the latest recevied weather packets stored in our database for station/object DL1ONI-13. If no packets are shown the sender has not sent any weather packets the latest 10 day(s).
| Time | Temp. | Humidity | Pressure | Rain* | Wind** | Luminosity | Snow |
|---|---|---|---|---|---|---|---|
| 1777681238 | 7.22° C | 47% | 1029 hPa | 0 mm | - | - | - |
| 1777677021 | 8.33° C | 44% | 1029.1 hPa | 0 mm | - | - | - |
| 1777671624 | 10° C | 39% | 1029.5 hPa | 0 mm | - | - | - |
| 1777669225 | 11.11° C | 37% | 1030 hPa | 0 mm | - | - | - |
| 1777667417 | 12.22° C | 34% | 1029.2 hPa | 0 mm | - | - | - |
| 1777662021 | 15.56° C | 27% | 1028.5 hPa | 0 mm | - | - | - |
| 1777660222 | 17.22° C | 26% | 1028 hPa | 0 mm | - | - | - |
| 1777659024 | 18.33° C | 25% | 1028.1 hPa | 0 mm | - | - | - |
| 1777656025 | 20.56° C | 25% | 1027.8 hPa | 0 mm | - | - | - |
| 1777647018 | 20.56° C | 25% | 1028.3 hPa | 0 mm | - | - | - |
| 1777642239 | 20° C | 25% | 1030.3 hPa | 0 mm | - | - | - |
| 1777638020 | 19.44° C | 25% | 1031 hPa | 0 mm | - | - | - |
| 1777636840 | 18.89° C | 25% | 1031 hPa | 0 mm | - | - | - |
| 1777632622 | 17.78° C | 25% | 1031.7 hPa | 0 mm | - | - | - |
| 1777632022 | 17.22° C | 25% | 1031.7 hPa | 0 mm | - | - | - |
| 1777627224 | 15° C | 25% | 1032 hPa | 0 mm | - | - | - |
| 1777615825 | 9.44° C | 25% | 1030.4 hPa | 0 mm | - | - | - |
| 1777614617 | 10° C | 25% | 1030.5 hPa | 0 mm | - | - | - |
| 1777613417 | 15° C | 25% | 1030.9 hPa | 0 mm | - | - | - |
| 1777612216 | 9.44° C | 26% | 1030.2 hPa | 0 mm | - | - | - |
| 1777610417 | 5° C | 25% | 1029.7 hPa | 0 mm | - | - | - |
| 1777609818 | 4.44° C | 25% | 1029.4 hPa | 0 mm | - | - | - |
| 1777608618 | 4.44° C | 25% | 1029.1 hPa | 0 mm | - | - | - |
| 1777604420 | 5° C | 25% | 1030.5 hPa | 0 mm | - | - | - |
| 1777602021 | 4.44° C | 25% | 1030.7 hPa | 0 mm | - | - | - |
* Rain latest hour (hover to see other rain measurements)
** Current wind speed in m/s (hover to see current wind gust speed)